Change the Weather History Date:

Thursday, May 16, 2013

  Actual Average Record
Temperature  
Mean Temperature 69 °F 60 °F  
Max Temperature 84 °F 72 °F 93 °F (1939)
Min Temperature 53 °F 49 °F 28 °F (1929)
Degree Days  
Heating Degree Days 0 6  
Month to date heating degree days 192 127  
Since 1 July heating degree days 6733 6550  
Cooling Degree Days 4 1  
Month to date cooling degree days 27 16  
Year to date cooling degree days 31 28  
Growing Degree Days 18 (Base 50)    
Moisture  
Dew Point 53 °F    
Average Humidity 53    
Maximum Humidity 78    
Minimum Humidity 28    
Precipitation  
Precipitation 0.01 in 0.13 in 1.74 in (1969)
Month to date precipitation 2.00 1.90  
Year to date precipitation 8.02 7.67  
Snow  
Snow 0.00 in 0.00 in - ()
Month to date snowfall T 0.3  
Since 1 July snowfall 27.3 30.8  
Snow Depth 0.00 in    
Sea Level Pressure  
Sea Level Pressure 29.81 in    
Wind  
Wind Speed 8 mph (SE)    
Max Wind Speed 29 mph    
Max Gust Speed 36 mph    
Visibility 10 miles    
Events Rain , Thunderstorm    
T = Trace of Precipitation, MM = Missing Value Source: NWS Daily Summary

Daily Weather History Graph

Daily Weather History Graph

Search for Another Location

Airport or City:

Trip Planner

Search our weather history database for the weather conditions in past years. The results will help you decide how hot, cold, wet, or windy it might be!

Date:

Astronomy

May. 16, 2013 Rise Set
Actual Time 6:08 AM CDT 8:44 PM CDT
Civil Twilight 5:36 AM CDT 9:16 PM CDT
Nautical Twilight 4:55 AM CDT 9:57 PM CDT
Astronomical Twilight 4:10 AM CDT 10:42 PM CDT
Moon 11:44 AM CDT (5/16) 1:04 AM CDT (5/16)
Length of Visible Light 15h 40m
Length of Day
14h 36m
Waxing Crescent, 36% of the Moon is Illuminated
May 16
Waxing Crescent
May 17
First Quarter
May 24
Full
May 31
Last Quarter
Jun 8
New

Hourly Weather History & Observations

Time (CDT) Temp. Heat Index Dew Point Humidity Pressure Visibility Wind Dir Wind Speed Gust Speed Precip Events Conditions
12:56 AM 60.1 °F - 44.1 °F 55% 29.86 in 10.0 mi Calm Calm - N/A   Mostly Cloudy
1:56 AM 59.0 °F - 44.1 °F 58% 29.85 in 10.0 mi Calm Calm - N/A   Partly Cloudy
2:56 AM 57.9 °F - 43.0 °F 58% 29.84 in 10.0 mi Calm Calm - N/A   Clear
3:56 AM 55.0 °F - 43.0 °F 64% 29.84 in 10.0 mi Calm Calm - N/A   Clear
4:56 AM 54.0 °F - 44.1 °F 69% 29.85 in 10.0 mi Calm Calm - N/A   Mostly Cloudy
5:56 AM 57.0 °F - 45.0 °F 64% 29.84 in 10.0 mi East 3.5 mph - N/A   Scattered Clouds
6:56 AM 57.0 °F - 48.0 °F 72% 29.85 in 10.0 mi Calm Calm - N/A   Mostly Cloudy
7:56 AM 63.0 °F - 46.9 °F 56% 29.85 in 10.0 mi Calm Calm - N/A   Partly Cloudy
8:56 AM 68.0 °F - 48.0 °F 49% 29.84 in 10.0 mi ESE 9.2 mph - N/A   Overcast
9:56 AM 73.9 °F - 48.9 °F 41% 29.82 in 10.0 mi ESE 13.8 mph 18.4 mph N/A   Clear
10:56 AM 80.1 °F - 45.0 °F 29% 29.81 in 10.0 mi ESE 16.1 mph - N/A   Clear
11:56 AM 80.1 °F - 46.0 °F 30% 29.79 in 10.0 mi ESE 20.7 mph 28.8 mph N/A   Scattered Clouds
12:56 PM 82.0 °F - 52.0 °F 35% 29.78 in 10.0 mi ESE 19.6 mph 28.8 mph N/A   Mostly Cloudy
1:29 PM 77.0 °F - 60.8 °F 57% 29.80 in 9.0 mi SSE 19.6 mph 25.3 mph 0.00 in Rain , Thunderstorm Light Rain
1:50 PM 78.8 °F - 60.8 °F 54% 29.80 in 10.0 mi SSE 18.4 mph 21.9 mph 0.00 in Thunderstorm Overcast
1:56 PM 80.1 °F 80.9 °F 60.1 °F 50% 29.77 in 10.0 mi SSE 15.0 mph 21.9 mph 0.00 in Thunderstorm Mostly Cloudy
2:14 PM 78.8 °F - 60.8 °F 54% 29.80 in 10.0 mi SSE 13.8 mph - N/A   Mostly Cloudy
2:32 PM 80.6 °F 81.5 °F 60.8 °F 51% 29.78 in 10.0 mi SSE 13.8 mph 21.9 mph N/A Thunderstorm Partly Cloudy
2:47 PM 80.6 °F 80.8 °F 57.2 °F 45% 29.79 in 10.0 mi South 8.1 mph - N/A   Scattered Clouds
2:56 PM 80.1 °F 80.6 °F 57.9 °F 47% 29.78 in 10.0 mi SW 12.7 mph - N/A   Mostly Cloudy
3:04 PM 69.8 °F - 55.4 °F 60% 29.82 in 10.0 mi WNW 21.9 mph 34.5 mph N/A Thunderstorm Mostly Cloudy
3:15 PM 66.2 °F - 55.4 °F 68% 29.82 in 10.0 mi NW 23.0 mph 35.7 mph N/A Thunderstorm Thunderstorm
3:56 PM 63.0 °F - 59.0 °F 87% 29.80 in 10.0 mi North 21.9 mph 29.9 mph 0.01 in Thunderstorm Partly Cloudy
4:03 PM 62.6 °F - 59.0 °F 88% 29.80 in 10.0 mi NNE 17.3 mph 29.9 mph N/A   Partly Cloudy
4:56 PM 64.9 °F - 59.0 °F 81% 29.78 in 10.0 mi NE 11.5 mph - N/A   Partly Cloudy
5:56 PM 68.0 °F - 59.0 °F 73% 29.77 in 10.0 mi ENE 5.8 mph - N/A   Clear
6:56 PM 69.1 °F - 59.0 °F 70% 29.75 in 10.0 mi East 10.4 mph - N/A   Clear
7:56 PM 66.9 °F - 59.0 °F 76% 29.78 in 10.0 mi ESE 9.2 mph - N/A   Mostly Cloudy
8:56 PM 66.9 °F - 57.9 °F 73% 29.79 in 10.0 mi SE 5.8 mph - N/A   Overcast
9:07 PM 66.2 °F - 57.2 °F 73% 29.81 in 10.0 mi SE 8.1 mph - N/A Thunderstorm Mostly Cloudy
9:32 PM 64.4 °F - 57.2 °F 77% 29.82 in 10.0 mi Calm Calm - N/A   Mostly Cloudy
9:56 PM 64.9 °F - 57.9 °F 78% 29.81 in 10.0 mi Calm Calm - 0.00 in Rain Light Rain
10:56 PM 63.0 °F - 60.1 °F 90% 29.78 in 10.0 mi SSE 6.9 mph - 0.00 in   Scattered Clouds
11:56 PM 64.0 °F - 57.9 °F 80% 29.78 in 10.0 mi SSE 10.4 mph - N/A   Clear